Flag for U.S.A. Weather past 2 weeks in Livonia, Michigan, U.S.A.

Now
66 °F

Broken clouds.


Feels Like: 66 °F
Forecast: 52 / 69 °F
Wind: 14 mph from West

Location: Detroit Metropolitan Wayne County Airport

Current Time: Sep 21, 2014 at 9:12:15 AM

Latest Report: Sep 21, 2014 at 8:53 AM


Visibility: 10 mi

Pressure: 29.66 "Hg

Humidity: 73%

Dew point: 57 °F

Location of LivoniaLocation

Historic Weather in Livonia — Graph

°F

Livonia temperature yesterday

Maximum temperature yesterday: 80 °F (at 2:53 PM)
Minimum temperature yesterday: 51 °F (at 6:53 AM)
Average temperature yesterday: 63 °F

Past Weeks' High & Low Weather Summary

 TemperatureHumidityPressure
High80 °F (Sep 20, 2:53 PM)97% (Sep 16, 6:53 AM)30.37 "Hg (Sep 16, 6:53 AM)
Low43 °F (Sep 14, 4:53 AM)40% (Sep 7, 3:53 PM)29.60 "Hg (Sep 10, 7:53 PM)
Average60 °F73%30.09 "Hg
* Reported Sep 6 7:53 AM — Sep 21 7:53 AM, Livonia, Weather by CustomWeather, © 2014

Note: Actual official high and low records may vary slightly from our data, if they occured in-between our weather recording intervals... More about our weather records

Advertising

Livonia weather history for previous 24 hours

 ConditionsComfort  
Time TempWeatherWind HumidityBarometerVisibility
7:53 AM
Sep 21
66 °FPassing clouds.14 mph81%29.63 "Hg10 mi
6:53 AM68 °FPassing clouds.14 mph90%29.61 "Hg9 mi
4:53 AM65 °FLow clouds.12 mph94%29.62 "Hg10 mi
3:53 AM65 °FLow clouds.10 mph94%29.67 "Hg10 mi
2:53 AM64 °FLow clouds.9 mph97%29.70 "Hg10 mi
1:53 AM65 °FLow clouds.14 mph94%29.75 "Hg10 mi
12:53 AM65 °FLow clouds.13 mph94%29.77 "Hg10 mi
11:53 PM
Sep 20
65 °FMostly cloudy.13 mph94%29.79 "Hg10 mi
10:53 PM64 °FPassing clouds.10 mph94%29.81 "Hg10 mi
9:53 PM63 °FMostly cloudy.8 mph93%29.83 "Hg10 mi
8:53 PM65 °FLight rain. Overcast.8 mph91%29.83 "Hg9 mi
7:53 PM65 °FStrong thunderstorms. Cloudy.31 mph91%29.84 "Hg2 mi
6:53 PM72 °FBroken clouds.8 mph73%29.81 "Hg10 mi
5:53 PM73 °FLight rain. Broken clouds.10 mph74%29.81 "Hg9 mi
4:53 PM76 °FLight rain. Partly sunny.15 mph64%29.83 "Hg10 mi
3:53 PM78 °FLight rain. Mostly cloudy.21 mph58%29.84 "Hg10 mi
2:53 PM80 °FBroken clouds.21 mph52%29.86 "Hg10 mi
1:53 PM79 °FPartly sunny.25 mph52%29.87 "Hg10 mi
Weather by CustomWeather, © 2014

See weather overviewHow to use our weather pages